Voltar ao catálogo

BREEZE-M R/B

AtivoHEO
NORAD 41192·ROCKET BODY·🇷🇺 Russia

Lançado Dec 24, 2015 de Baikonur Cosmodrome

Loading…

Próximas Passagens (próximas 24 horas)

TLE

AtualizadoSource: Space-Track

Época: Sep 14, 2026, 06:39 UTC

1 41192U 15082B   26257.27719123 -.00000097  00000-0  00000-0 0  9994
2 41192  23.0706  56.2635 6007088 203.1430 111.4189  2.16570124 84843

Acompanhe BREEZE-M R/B em tempo real com AllMySat

Download on the App Store